Home > Weather > Tabriz > Past weeks

Flag for Iran Weather for the Past 2 Weeks in Tabriz, Iran

Now
27 °F

Passing clouds.


Feels Like: 21 °F
Forecast: 16 / 40 °F
Wind: 5 mph from East

Location: Tabriz Airport

Current Time: Feb 10, 2016 at 3:06:56 AM

Latest Report: Feb 10, 2016 at 2:30 AM


Visibility: N/A

Pressure: 30.30 "Hg (25.42 "Hg at 1388m altitude)

Humidity: 64%

Dew point: 16 °F

Location of TabrizLocation

Historic Weather in Tabriz — Graph

°F

Tabriz Temperature Yesterday

Maximum temperature yesterday: 39 °F (at 3:00 PM)
Minimum temperature yesterday: 23 °F (at 7:00 AM)
Average temperature yesterday: 29 °F

High & Low Weather Summary for the Past Weeks

 TemperatureHumidityPressure
High50 °F (Feb 5, 2:30 PM)93% (Feb 1, 1:00 AM)30.42 "Hg (Feb 1, 1:00 AM)
Low5 °F (Jan 28, 6:00 AM)27% (Feb 6, 1:30 PM)29.83 "Hg (Jan 26, 12:30 AM)
Average29 °F66%30.19 "Hg
* Reported Jan 26 12:30 AM — Feb 10 1:00 AM, Tabriz, Weather by CustomWeather, © 2016

Note: Actual official high and low records may vary slightly from our data, if they occured in-between our weather recording intervals... More about our weather records

Advertising

Tabriz Weather History for the Previous 24 Hours

 ConditionsComfort  
Time TempWeatherWind HumidityBarometerVisibility
1:00 AM
Wed, Feb 10
23 °FPassing clouds.2 mph74%30.33 "HgN/A
12:30 AM25 °FPassing clouds.5 mph69%30.33 "HgN/A
12:00 AM27 °FPassing clouds.5 mph69%30.30 "HgN/A
11:30 PM
Tue, Feb 9
25 °FPassing clouds.No wind74%30.30 "HgN/A
11:00 PM27 °FPassing clouds.5 mph69%30.30 "HgN/A
10:30 PM25 °FPassing clouds.5 mph74%30.30 "HgN/A
10:00 PM27 °FPassing clouds.2 mph69%30.33 "HgN/A
9:30 PM28 °FPassing clouds.5 mph64%30.33 "HgN/A
9:00 PM28 °FPassing clouds.5 mph64%30.01 "HgN/A
8:30 PM28 °FPassing clouds.7 mph64%30.01 "HgN/A
8:00 PM30 °FPassing clouds.5 mph55%30.30 "HgN/A
7:30 PM32 °FPassing clouds.7 mph51%30.30 "HgN/A
7:00 PM32 °FPassing clouds.5 mph51%30.30 "HgN/A
6:30 PM34 °FPassing clouds.5 mph44%30.30 "HgN/A
6:00 PM34 °FPassing clouds.7 mph44%30.30 "HgN/A
5:30 PM36 °FScattered clouds.5 mph41%30.30 "HgN/A
5:00 PM37 °FScattered clouds.5 mph35%30.30 "HgN/A
4:30 PM39 °FScattered clouds.2 mph33%30.30 "HgN/A
4:00 PM39 °FScattered clouds.7 mph33%30.30 "HgN/A
3:30 PM39 °FPassing clouds.7 mph33%30.30 "HgN/A
3:00 PM39 °FPassing clouds.7 mph33%30.30 "HgN/A
2:00 PM36 °FPassing clouds.7 mph38%30.30 "HgN/A
1:30 PM36 °FPassing clouds.12 mph38%30.30 "HgN/A
1:00 PM34 °FPassing clouds.5 mph41%30.33 "HgN/A
12:30 PM34 °FPassing clouds.9 mph48%30.33 "HgN/A
12:00 PM32 °FPassing clouds.14 mph51%30.33 "HgN/A
11:30 AM32 °FPassing clouds.9 mph51%30.36 "HgN/A
11:00 AM30 °FPassing clouds.7 mph55%30.36 "HgN/A
10:30 AM30 °FPassing clouds.7 mph51%30.36 "HgN/A
10:00 AM28 °FSunny.5 mph64%30.36 "Hg10 mi
9:30 AM27 °FSunny.9 mph64%30.36 "Hg10 mi
9:00 AM27 °FSunny.7 mph64%30.36 "Hg10 mi
8:30 AM25 °FSunny.5 mph69%30.33 "Hg10 mi
8:00 AM25 °FSunny.7 mph69%30.33 "Hg10 mi
7:00 AM23 °FClear.5 mph68%30.33 "Hg10 mi
6:30 AM25 °FClear.7 mph63%30.30 "Hg10 mi
6:00 AM25 °FClear.9 mph63%30.30 "Hg10 mi
5:30 AM25 °FClear.7 mph63%30.30 "Hg10 mi
5:00 AM25 °FClear.7 mph63%30.30 "Hg10 mi
4:30 AM25 °FClear.7 mph63%30.30 "Hg10 mi
4:00 AM25 °FClear.7 mph69%30.30 "Hg10 mi
3:30 AM25 °FClear.9 mph69%30.30 "Hg10 mi
3:00 AM25 °FClear.7 mph69%30.30 "Hg10 mi
Weather by CustomWeather, © 2016

See weather overviewHow to use our weather pages